Tracking 29892 objects as of 21-Nov-2024
HD Live streaming from Space Station
objects crossing your sky now

STARLINK-31160

Track STARLINK-31160 now!
10-day predictions
STARLINK-31160 is classified as:


NORAD ID: 58749
Int'l Code: 2024-005X
Perigee: 565.6 km
Apogee: 566.8 km
Inclination: 43.0 °
Period: 95.8 minutes
Semi major axis: 6937 km
RCS: Unknown
Launch date: January 7, 2024
Source: United States (US)
Launch site: AIR FORCE EASTERN TEST RANGE (AFETR)
Your satellite tracking list
Your tracking list is empty




NASA's NSSDC Master Catalog

Two Line Element Set (TLE):
1 58749U 24005X   24325.23039718  .00001438  00000-0  12145-3 0  9995
2 58749  43.0023 279.3870 0000801 266.2056  93.8695 15.02542676 49055
Source of the keplerian elements: AFSPC